Regional Weather Roundup
Issued by NWS Huntsville, AL

Home | Current Version | Previous Version | Text Only | Print | Product List | Glossary On
Versions: 1 2 3 4 5 6 7 8 9 10 11 12 13 14 15 16 17 18 19 20 21 22 23 24 25 26 27 28 29 30 31 32 33 34 35 36 37 38 39 40 41 42 43 44 45 46 47 48 49 50
000
ASUS44 KHUN 251410
RWRHUN

WEATHER ROUNDUP FOR THE TENNESSEE VALLEY
NATIONAL WEATHER SERVICE HUNTSVILLE AL
900 AM CDT MON MAY 25 2015

ALZ001>004-251500-
NORTHWEST ALABAMA

CITY           SKY/WX    TMP DP  RH WIND       PRES   REMARKS
COURTLAND HCN    N/A     70 N/A N/A CALM        N/A
RUSSELLVILLE     N/A     68 N/A N/A MISG        N/A
SHOALS AIRPORT CLOUDY    69  65  86 E6        30.16S
$$

ALZ005>007-016-251500-
NORTH CENTRAL ALABAMA

CITY           SKY/WX    TMP DP  RH WIND       PRES   REMARKS
CULLMAN AG STN   N/A     70 N/A N/A SE5         N/A
DECATUR AP     CLOUDY    70  64  81 SE10      30.18R
HUNTSVILLE AP  CLOUDY    74  63  68 SE13      30.18R
HUN NWS/UAH      N/A     72  61  68 SE10        N/A
MERIDIANVILLE  CLOUDY    70  59  68 SE7       30.20R
REDSTONE ARSN  CLOUDY    72  64  76 SE10      30.18R
VINEMONT AP    CLOUDY    70  63  79 SE7       30.21R
$$

ALZ008>010-251500-
NORTHEAST ALABAMA

CITY           SKY/WX    TMP DP  RH WIND       PRES   REMARKS
ALBERTVILLE    CLOUDY    70  68  94 SE9G17    30.21S
FORT PAYNE     CLOUDY    70  59  68 S5        30.24S
SCOTTSBORO HCN   N/A     72 N/A N/A MISG        N/A
VALLEY HEAD      N/A     70 N/A N/A MISG        N/A
$$

TNZ076-096-097-251500-
SOUTHEASTERN MIDDLE TENNESSEE

CITY           SKY/WX    TMP DP  RH WIND       PRES   REMARKS
TULLAHOMA      SUNNY     72  61  68 SE9       30.22R
WINCHESTER     PTSUNNY   72  61  68 S13       30.22R
$$

...SURROUNDING SITES...

CITY           SKY/WX    TMP DP  RH WIND       PRES   REMARKS
ATLANTA        PTSUNNY   72  64  76 SE8       30.29F
ANNISTON       CLOUDY    74  65  73 VRB7      30.23S
BIRMINGHAM     CLOUDY    74  65  73 SE13      30.21R
CHATTANOOGA    CLOUDY    71  62  73 S12       30.26S
CORINTH        LGT RAIN  68  66  94 CALM      30.12R
DALTON         CLOUDY    72  64  78 SE12      30.27F
GADSDEN        CLOUDY   N/A N/A N/A SE10G18   30.21S
GOLDEN TRNGL   CLOUDY    73  70  88 S14       30.11R
HALEYVILLE     FAIR      67  67 100 SE9G21    30.17F
JACKSON TN     CLOUDY    70  66  87 SE5       30.11R
LEWISBURG      CLOUDY    67  63  87 CALM      30.20R
MEMPHIS        CLOUDY    72  68  88 S7        30.08R
NASHVILLE      LGT RAIN  66  64  94 S8        30.20S
OXFORD MS      FAIR      66  66 100 S7        30.10F
ROME           PTSUNNY   73  64  73 SE10G21   30.25F
SAVANNAH       CLOUDY    66  32  28 CALM      30.15R VSB 1
TUPELO         TSTM      68  65  90 S5        30.11R FOG
TUSCALOOSA     LGT RAIN  73  68  84 SE8       30.15R
$$

...GULF COAST WEATHER...

CITY           SKY/WX    TMP DP  RH WIND       PRES   REMARKS
GULFPORT       CLOUDY    80  75  84 SE14      30.10R THUNDER
PASCAGOULA     CLOUDY    79  74  84 SE9       30.12R
MOBILE         CLOUDY    77  74  90 S8        30.14R
GULF SHORES    CLOUDY    80  74  82 SE12G17   30.13R
PENSACOLA      CLOUDY    81  75  82 SE12      30.13R
DESTIN         CLOUDY    83  75  77 SE15      30.15R HX  90
PANAMA CITY    MOSUNNY   83  74  74 SE15      30.16S HX  90
APPALACHICOLA  CLOUDY    86  74  67 SE9       30.18R HX  94
$$




USA.gov is the U.S. government's official web portal to all federal, state and local government web resources and services.